EW4629 Weather Reports


time (UTC)temp
C
wind
direction
speed
KPH
gust
KPH
rain 1hr
cm
rain 24hr
cm
rain mn
cm
humidity
%
barometer
mb
20260504173049 22 233 0.0 0.0 0.00 0.00 0.00 32 1012.9
20260504171538 22 245 0.0 0.0 0.00 0.00 0.00 33 1013.1
20260504081501 13 238 0.0 0.0 0.00 0.00 0.00 1 1015.7
20260504050007 11 229 0.0 0.0 0.00 0.00 0.00 11 1016.1
20260504044509 11 273 0.0 0.0 0.00 0.00 0.00 13 1016.1
20260504043101 10 232 0.0 0.0 0.00 0.00 0.00 21 1016.0
20260504041602 10 231 0.0 0.0 0.00 0.00 0.00 33 1015.9
20260504040055 10 251 0.0 0.0 0.00 0.00 0.00 37 1015.7
20260504034559 10 271 0.0 0.0 0.00 0.00 0.00 44 1015.7
20260504033051 10 274 0.0 0.0 0.00 0.00 0.00 49 1015.5
20260504031551 10 274 0.0 0.0 0.00 0.00 0.00 52 1015.5
20260504030050 10 278 0.0 0.0 0.00 0.00 0.00 53 1015.4
20260504024553 10 280 0.0 0.0 0.00 0.00 0.00 53 1015.4
20260504023050 10 280 0.0 0.0 0.00 0.00 0.00 54 1015.4
20260504021552 10 281 0.0 0.0 0.00 0.00 0.00 55 1015.4
20260504020058 10 281 0.0 0.0 0.00 0.00 0.00 56 1015.4
20260504014548 10 280 0.0 0.0 0.00 0.00 0.00 56 1015.3
20260504013108 11 280 0.0 0.0 0.00 0.00 0.00 56 1015.2
20260504011548 11 280 0.0 0.0 0.00 0.00 0.00 55 1015.0
20260504010047 11 281 0.0 0.0 0.00 0.00 0.00 54 1015.0
20260504004547 12 281 0.0 0.0 0.00 0.00 0.00 53 1014.8
20260504003046 12 282 0.0 0.0 0.00 0.00 0.00 51 1014.8
20260504001549 13 281 0.0 0.0 0.00 0.00 0.00 47 1014.7
20260504000045 14 281 0.0 0.0 0.00 0.00 0.00 45 1014.4
20260503234545 15 282 0.0 0.0 0.00 0.00 0.00 44 1014.2
20260503233045 16 282 0.0 0.0 0.00 0.00 0.00 40 1014.1
20260503231544 16 282 0.0 0.0 0.00 0.00 0.00 37 1014.2
20260503230044 17 320 0.0 0.0 0.00 0.00 0.00 37 1014.2
20260503224544 17 340 0.0 0.0 0.00 0.00 0.00 36 1014.1
20260503223044 17 282 0.0 0.0 0.00 0.00 0.00 37 1014.1
20260503221556 17 317 0.0 0.0 0.00 0.00 0.00 36 1014.3
20260503220041 17 318 0.0 0.0 0.00 0.00 0.00 35 1014.4
20260503214542 16 337 0.0 0.0 0.00 0.00 0.00 36 1014.2
20260503213044 16 322 0.0 0.0 0.00 0.00 0.00 36 1014.3
20260503211539 17 300 0.0 0.0 0.00 0.00 0.00 36 1014.3
20260503210037 16 319 0.0 0.0 0.00 0.00 0.00 38 1014.3
20260503204537 16 341 0.0 0.0 0.00 0.00 0.00 38 1014.3
20260503203037 16 343 0.0 0.0 0.00 0.00 0.00 37 1014.4
20260503201535 16 275 0.0 0.0 0.00 0.00 0.00 37 1014.6
20260503200033 15 266 0.0 0.0 0.00 0.00 0.00 38 1014.8
20260503194534 15 309 0.0 0.0 0.00 0.00 0.00 38 1015.1
20260503193043 15 331 0.0 0.0 0.00 0.00 0.00 37 1015.2
20260503191600 16 308 0.0 0.0 0.00 0.00 0.00 38 1015.3
20260503190034 16 350 0.0 0.0 0.00 0.00 0.00 40 1015.4
20260503184528 15 343 0.0 0.0 0.00 0.00 0.00 41 1015.5
20260503183026 15 305 0.0 0.0 0.00 0.00 0.00 40 1015.7
20260503181529 14 359 0.0 0.0 0.00 0.00 0.00 43 1015.8
20260503180026 14 310 0.0 0.0 0.00 0.00 0.00 40 1015.7
20260503174521 14 286 0.0 0.0 0.00 0.00 0.00 39 1016.0